Dewpoint
73 72 72 71 53 50 48 48 49 50 50 53 55 52 57 60 53 49 64 67 70 70 71 72 76 75 75 75 74 75 74 74 74 74 74 72 72 72 73 72 72 72 72 72 72 73 73 73 73
72 70 73 61 50 45 47 51 49 51 54 57 58 59 59 58 61 63 66 69 70 71 71 72 76 76 75 76 75 75 74 74 74 73 73 73 73 72 72 72 71 72 72 72 72 72 73 72 73
71 71 68 55 49 46 48 52 53 55 55 56 59 61 61 58 62 63 67 69 70 72 73 73 77 77 75 75 75 75 74 73 73 73 73 73 73 72 72 72 71 71 72 71 72 73 73 73 73
71 72 59 45 46 48 50 53 54 54 55 58 58 59 62 63 62 66 69 70 70 71 71 74 75 75 75 75 75 75 74 74 74 74 73 73 73 73 73 73 73 72 72 72 73 72 73 73 73
69 61 48 48 49 50 52 52 53 53 55 56 57 58 59 62 67 67 68 69 69 70 70 72 76 75 75 74 74 74 74 75 75 74 74 73 73 73 73 73 72 72 72 73 72 72 72 73 72
58 52 45 46 49 50 52 55 55 55 57 57 57 56 60 67 66 67 67 66 68 69 69 71 75 75 74 74 74 75 75 73 73 74 73 73 73 72 73 73 73 73 73 73 73 72 71 72 72
53 48 45 48 49 49 51 53 53 53 54 55 57 55 63 65 66 67 68 66 67 68 68 71 72 75 73 73 74 74 74 74 73 74 74 74 73 73 73 73 73 73 72 73 73 73 72 72 72
54 50 47 48 48 48 53 52 52 49 53 56 56 57 60 64 66 66 68 67 68 68 68 71 74 73 72 70 73 74 74 74 74 74 74 74 73 73 74 73 73 73 73 73 73 72 73 71 71
56 48 48 48 46 50 53 52 55 53 51 56 59 58 61 65 66 65 66 67 68 69 69 71 72 73 73 71 71 74 74 74 73 74 74 73 73 72 71 71 73 74 73 73 74 73 73 72 71
52 51 50 53 51 50 52 53 53 49 54 58 60 63 64 64 64 61 61 62 64 67 70 71 72 72 72 70 74 73 73 73 75 75 75 76 75 75 72 73 74 74 73 72 74 73 74 73 74
53 49 53 53 52 50 51 52 54 51 51 56 57 61 63 63 63 61 60 59 62 66 68 70 72 73 71 70 72 72 71 72 75 75 74 75 74 73 75 77 76 76 73 75 73 74 68 70 73
49 53 54 54 53 52 52 53 53 51 52 56 58 61 62 62 61 60 60 61 62 66 66 68 71 73 73 70 71 71 71 71 72 73 74 74 73 75 74 77 76 76 75 74 74 73 74 71 71
48 52 53 55 55 53 54 53 53 52 56 58 60 60 61 60 61 61 60 62 64 65 66 68 71 73 72 73 71 71 70 70 71 72 73 74 75 75 75 76 73 75 75 74 73 73 73 74 74
51 50 50 52 53 53 51 53 54 55 59 59 59 59 59 60 61 63 64 65 66 67 66 66 69 71 71 71 72 72 71 70 72 72 72 73 73 76 73 74 74 74 75 74 74 74 74 73 73
49 46 47 48 51 50 50 51 52 56 59 59 58 59 60 61 62 63 64 65 66 66 66 66 68 67 70 70 71 72 71 70 72 73 74 75 75 75 75 74 74 74 75 76 77 75 75 73 72
47 46 46 47 49 52 47 45 53 57 57 58 59 60 61 62 62 64 65 66 66 65 67 67 64 64 67 69 71 71 72 71 71 72 73 75 75 75 75 74 75 75 75 75 74 74 75 71 71
44 41 42 43 48 49 47 46 53 56 56 58 59 59 60 61 63 64 65 66 65 66 67 66 66 65 67 70 71 71 72 71 70 72 72 75 75 75 75 74 75 75 72 72 72 71 70 72 73
37 39 40 42 45 48 46 45 53 53 55 57 58 59 60 60 61 63 65 65 65 66 68 68 66 68 71 71 72 71 71 71 72 72 73 75 74 75 76 75 74 75 71 70 69 70 70 71 71
37 37 38 40 45 47 46 46 51 54 53 54 56 58 58 59 60 62 64 64 65 65 67 68 68 70 70 69 69 70 70 71 73 73 74 74 75 75 76 74 74 74 70 69 70 70 72 69 71
34 31 30 36 49 48 45 44 48 53 53 53 53 55 57 58 58 60 61 62 63 64 66 68 69 70 70 69 70 70 71 71 73 73 74 74 73 74 75 76 75 74 69 70 69 71 68 68 69
30 29 30 29 44 46 44 41 46 50 54 55 54 54 54 55 56 56 57 60 61 63 65 67 70 71 71 71 71 71 72 73 72 73 73 73 74 74 76 76 74 74 69 67 69 69 70 66 68
30 30 29 34 30 26 41 32 41 44 50 53 53 54 53 54 55 55 55 57 59 62 65 67 69 71 71 72 71 73 69 68 70 72 73 73 74 74 75 75 75 72 69 70 70 67 68 69 66
29 31 30 35 33 35 37 34 38 45 44 51 52 52 53 53 54 55 56 57 59 61 63 66 69 70 72 72 73 71 71 69 71 73 74 74 75 76 75 76 73 72 68 71 71 70 69 66 64
32 35 37 38 36 26 35 33 32 37 40 45 49 52 52 53 53 55 57 58 59 62 64 65 69 71 72 72 72 73 72 71 71 72 72 71 73 74 76 75 74 72 70 71 69 70 69 68 67
24 19 22 25 26 21 32 35 33 38 37 42 43 51 53 53 53 54 55 57 60 62 64 66 70 71 72 71 71 71 72 73 73 73 70 72 70 71 74 76 74 71 72 72 71 70 68 68 66
18 15 13 17 19 19 33 30 27 33 45 46 49 49 54 55 53 54 56 59 61 62 64 66 68 70 70 70 71 73 73 70 70 72 70 70 69 69 75 76 74 73 73 72 70 67 64 66 65
19 18 19 19 20 23 25 30 27 39 44 48 46 50 51 53 55 55 55 57 59 62 64 66 68 70 70 69 72 72 72 72 71 73 73 70 71 70 75 76 74 73 73 73 71 66 66 65 65
15 18 12 20 23 19 18 25 22 33 41 47 49 49 49 51 54 54 55 57 58 60 62 65 67 69 70 70 71 70 71 72 73 73 73 73 72 73 75 76 75 73 73 73 73 69 68 65 62
15 14 16 17 19 12 12 15 28 37 44 48 49 50 52 52 51 54 56 58 58 60 61 65 68 69 70 69 71 71 70 70 72 71 73 73 73 73 74 75 75 74 73 73 73 71 69 66 65
11 13 12 12 20 23 22 14 32 45 49 49 50 49 54 57 55 54 56 59 58 61 62 67 68 68 68 66 68 70 70 71 70 71 72 73 73 73 73 74 75 75 74 73 73 71 68 68 66
Lifted_Index
-4 -4 -4 -2 -1 0 0 0 0 0 0 -0 -1 -1 -1 -1 -0 -1 -2 -3 -4 -4 -3 -3 -3 -3 -3 -3 -3 -3 -2 -2 -2 -1 -1 -1 -1 -1 -2 -2 -2 -3 -3 -3 -3 -4 -4 -4 -4
-4 -4 -3 -1 0 0 0 0 -0 -0 -0 -1 -1 -1 -1 -1 -1 -1 -2 -3 -4 -4 -4 -3 -3 -3 -3 -3 -3 -3 -2 -2 -2 -2 -2 -1 -1 -2 -2 -2 -2 -3 -3 -3 -4 -4 -4 -4 -4
-5 -4 -2 -0 1 0 0 -0 -0 -1 -1 -1 -2 -2 -1 -1 -1 -2 -3 -3 -4 -4 -4 -4 -4 -4 -3 -3 -3 -3 -3 -3 -2 -2 -2 -2 -2 -2 -2 -2 -3 -3 -3 -3 -4 -4 -4 -4 -4
-5 -4 -1 1 1 0 0 -0 -0 -1 -1 -1 -2 -1 -1 -1 -1 -2 -2 -3 -3 -3 -3 -3 -4 -4 -3 -3 -3 -3 -3 -3 -3 -3 -3 -2 -3 -3 -3 -3 -3 -3 -3 -3 -3 -4 -4 -4 -4
-3 -1 0 1 1 0 0 -0 -0 -0 -1 -1 -1 -1 -0 -1 -1 -2 -2 -2 -2 -2 -2 -3 -3 -3 -3 -3 -3 -3 -3 -3 -3 -3 -3 -3 -3 -3 -3 -3 -4 -4 -4 -3 -3 -3 -3 -3 -3
-1 0 1 0 0 0 0 0 0 -0 -0 -1 -0 -0 -0 -1 -1 -2 -2 -2 -2 -2 -2 -3 -3 -3 -3 -3 -3 -3 -3 -3 -3 -3 -3 -3 -3 -3 -3 -3 -4 -4 -4 -4 -3 -3 -3 -3 -2
-0 0 1 0 -0 -0 0 0 1 1 0 0 0 0 -1 -1 -2 -1 -1 -1 -1 -1 -2 -2 -3 -3 -3 -3 -3 -3 -3 -3 -3 -3 -3 -3 -3 -3 -3 -3 -3 -4 -4 -4 -3 -3 -2 -2 -2
-0 -0 -0 -0 -0 -0 -0 0 1 1 1 1 0 -0 -1 -1 -1 -1 -1 -1 -1 -1 -2 -2 -3 -3 -2 -2 -3 -3 -3 -3 -3 -3 -3 -3 -3 -3 -3 -3 -3 -4 -4 -4 -3 -3 -3 -2 -2
-1 -1 -1 -1 -0 -0 -0 -0 0 1 1 1 0 -0 -0 -1 -1 -1 -1 -1 -1 -2 -2 -3 -3 -3 -3 -2 -2 -3 -3 -3 -3 -3 -3 -4 -4 -3 -3 -3 -3 -3 -4 -4 -4 -3 -3 -3 -2
-1 -1 -1 -1 -1 -0 -0 -0 -0 0 0 -0 -0 -0 -0 -0 -0 0 1 0 -0 -1 -2 -3 -3 -3 -3 -2 -2 -3 -3 -3 -4 -4 -4 -4 -4 -4 -3 -3 -3 -3 -3 -3 -4 -3 -3 -3 -3
-1 -1 -2 -2 -1 -1 -1 -1 -0 -0 -0 -1 -1 -0 -0 -0 -0 0 1 1 1 -0 -1 -2 -3 -3 -3 -2 -2 -3 -3 -3 -4 -4 -4 -4 -4 -3 -4 -4 -3 -3 -3 -3 -3 -3 -2 -2 -3
-0 -1 -1 -2 -1 -1 -1 -1 -1 -1 -1 -1 -1 -1 -0 -0 -0 0 1 1 1 -0 -1 -2 -3 -3 -3 -3 -2 -3 -3 -3 -3 -4 -4 -4 -3 -3 -4 -4 -4 -4 -4 -3 -3 -3 -2 -2 -3
-0 -1 -1 -1 -1 -1 -1 -1 -1 -1 -1 -1 -1 -1 -1 -0 -0 -0 -0 -0 -1 -1 -1 -2 -2 -3 -3 -3 -3 -3 -3 -3 -3 -3 -3 -3 -3 -4 -4 -4 -4 -4 -4 -4 -3 -3 -3 -3 -3
-0 -0 -0 -1 -1 -1 -1 -2 -2 -2 -1 -1 -1 -1 -1 -1 -1 -1 -1 -1 -2 -2 -2 -2 -2 -2 -2 -3 -3 -3 -3 -3 -3 -3 -3 -3 -4 -4 -4 -4 -4 -4 -4 -4 -4 -4 -3 -3 -3
0 0 0 -0 -1 -1 -1 -1 -2 -2 -2 -2 -1 -1 -1 -2 -2 -2 -2 -2 -2 -2 -2 -1 -1 -1 -2 -2 -3 -3 -3 -3 -3 -4 -4 -4 -4 -4 -4 -4 -4 -4 -4 -4 -4 -4 -4 -3 -3
0 0 0 0 -0 -1 -1 -1 -1 -2 -2 -2 -2 -2 -2 -2 -2 -2 -3 -3 -3 -2 -2 -2 -1 -1 -1 -2 -3 -3 -4 -4 -4 -4 -4 -5 -5 -5 -5 -5 -5 -4 -4 -4 -4 -4 -3 -3 -3
1 1 1 0 -0 -1 -1 -1 -2 -2 -2 -2 -2 -2 -2 -2 -2 -3 -3 -3 -3 -3 -2 -2 -2 -2 -2 -2 -3 -3 -3 -4 -4 -4 -4 -5 -5 -5 -5 -5 -5 -5 -4 -3 -3 -3 -3 -3 -3
1 1 1 0 -0 -1 -1 -1 -2 -2 -2 -2 -2 -2 -2 -2 -2 -3 -3 -3 -3 -3 -3 -2 -2 -2 -3 -3 -3 -3 -4 -4 -4 -4 -4 -5 -5 -6 -6 -5 -5 -5 -4 -3 -2 -2 -2 -3 -3
2 2 1 1 -0 -1 -1 -1 -2 -2 -2 -2 -2 -2 -3 -3 -2 -2 -3 -3 -3 -3 -3 -3 -3 -3 -3 -3 -4 -4 -4 -5 -5 -5 -5 -5 -5 -6 -6 -6 -6 -5 -4 -3 -2 -2 -3 -3 -3
2 2 2 1 0 -1 -1 -1 -1 -2 -2 -1 -1 -2 -2 -2 -2 -2 -2 -2 -2 -2 -2 -3 -3 -4 -4 -4 -4 -4 -5 -5 -5 -5 -5 -5 -5 -5 -6 -6 -6 -5 -4 -3 -3 -3 -3 -3 -2
2 2 2 2 1 0 0 0 -0 -1 -1 -2 -1 -1 -2 -2 -2 -2 -1 -1 -2 -2 -2 -2 -3 -4 -4 -4 -4 -4 -5 -5 -5 -6 -6 -5 -5 -5 -6 -6 -6 -5 -4 -3 -3 -3 -2 -2 -2
2 2 2 2 1 1 1 1 0 -0 -1 -1 -1 -1 -2 -2 -2 -2 -1 -1 -1 -2 -2 -3 -3 -3 -4 -4 -4 -4 -5 -5 -5 -6 -6 -6 -6 -6 -6 -6 -5 -4 -4 -4 -3 -2 -2 -2 -2
3 3 3 2 2 1 1 1 0 0 -0 -1 -1 -1 -2 -2 -2 -2 -2 -1 -1 -2 -2 -3 -3 -3 -4 -4 -4 -4 -4 -5 -5 -6 -6 -6 -6 -6 -6 -6 -5 -4 -3 -3 -2 -2 -1 -1 -1
4 3 3 2 1 1 1 1 0 0 0 -0 -1 -1 -2 -2 -2 -2 -2 -2 -2 -2 -2 -3 -3 -4 -4 -4 -4 -4 -4 -5 -5 -6 -6 -6 -6 -6 -7 -6 -5 -4 -3 -2 -1 -1 -1 -0 0
4 3 3 2 1 1 0 1 1 1 1 1 -0 -1 -2 -2 -2 -2 -2 -2 -2 -2 -2 -3 -3 -4 -4 -4 -4 -4 -4 -4 -5 -5 -6 -6 -6 -6 -7 -6 -5 -4 -3 -2 -1 -0 0 0 1
4 3 2 1 1 0 0 0 1 1 1 1 -0 -1 -2 -2 -2 -2 -2 -2 -3 -3 -3 -3 -4 -4 -4 -4 -4 -4 -4 -4 -5 -5 -5 -5 -5 -6 -6 -7 -6 -4 -3 -2 -1 -0 1 1 1
3 3 2 1 1 0 0 0 1 1 1 0 -0 -1 -1 -2 -2 -2 -2 -2 -3 -3 -3 -4 -4 -4 -4 -4 -5 -5 -5 -4 -5 -5 -5 -5 -5 -5 -6 -7 -6 -5 -4 -3 -2 -1 1 1 2
3 2 1 1 1 0 0 1 1 1 0 -0 -1 -1 -1 -2 -2 -2 -2 -3 -3 -4 -4 -4 -4 -4 -4 -4 -4 -5 -5 -5 -5 -5 -5 -5 -5 -6 -6 -7 -6 -5 -5 -4 -3 -2 -0 1 1
2 1 1 0 0 0 1 1 1 0 0 -0 -1 -1 -1 -2 -2 -3 -3 -3 -3 -4 -4 -4 -4 -4 -3 -3 -3 -4 -5 -5 -5 -5 -6 -6 -6 -6 -6 -7 -7 -6 -5 -5 -4 -3 -1 -0 0
1 1 0 0 0 0 1 1 1 0 -0 -1 -1 -1 -2 -2 -2 -2 -3 -3 -4 -4 -4 -4 -4 -4 -3 -2 -2 -4 -5 -5 -5 -6 -6 -6 -6 -6 -6 -6 -7 -6 -6 -5 -4 -3 -2 -1 -0